FW6819 Weather Reports


time (UTC)temp
C
wind
direction
speed
KPH
gust
KPH
rain 1hr
cm
rain 24hr
cm
rain mn
cm
humidity
%
barometer
mb
20260504110351 9 124 0.0 0.0 0.00 0.00 0.00 72 1016.3
20260504100309 10 124 0.0 0.0 0.00 0.00 0.00 71 1016.4
20260504081702 8 124 0.0 0.0 0.00 0.00 0.00 75 1016.3
20260504081159 8 124 0.0 0.0 0.00 0.00 0.00 76 1016.4
20260504080655 8 124 0.0 0.0 0.00 0.00 0.00 77 1016.2
20260504080152 8 124 0.0 0.0 0.00 0.00 0.00 76 1016.4
20260504070120 7 124 0.0 0.0 0.00 0.00 0.00 81 1016.5
20260504050508 6 124 0.0 0.0 0.00 0.00 0.00 80 1016.6
20260504050005 6 124 0.0 0.0 0.00 0.00 0.00 80 1016.7
20260504045501 5 124 0.0 0.0 0.00 0.00 0.00 79 1016.6
20260504044957 5 124 0.0 0.0 0.00 0.00 0.00 81 1016.6
20260504044455 5 124 0.0 0.0 0.00 0.00 0.00 82 1016.5
20260504043952 5 124 0.0 0.0 0.00 0.00 0.00 83 1016.5
20260504043449 5 124 0.0 0.0 0.00 0.00 0.00 82 1016.7
20260504042946 5 124 0.0 0.0 0.00 0.00 0.00 82 1016.7
20260504042443 5 124 0.0 0.0 0.00 0.00 0.00 81 1016.4
20260504041940 5 124 0.0 0.0 0.00 0.00 0.00 81 1016.5
20260504041436 5 124 0.0 0.0 0.00 0.00 0.00 81 1016.5
20260504040932 5 124 0.0 0.0 0.00 0.00 0.00 81 1016.5
20260504040430 5 124 0.0 0.0 0.00 0.00 0.00 81 1016.7
20260504035925 5 124 0.0 0.0 0.00 0.00 0.00 81 1016.6
20260504035423 5 124 0.0 0.0 0.00 0.00 0.00 81 1016.8
20260504034919 5 124 0.0 0.0 0.00 0.00 0.00 83 1016.6
20260504034417 5 124 0.0 0.0 0.00 0.00 0.00 82 1016.4
20260504033914 5 124 0.0 0.0 0.00 0.00 0.00 82 1016.5
20260504033412 5 124 0.0 0.0 0.00 0.00 0.00 82 1016.6
20260504032909 5 124 0.0 0.0 0.00 0.00 0.00 82 1016.5
20260504032405 5 124 0.0 0.0 0.00 0.00 0.00 82 1016.5
20260504031902 5 124 0.0 0.0 0.00 0.00 0.00 81 1016.3
20260504031359 5 124 0.0 0.0 0.00 0.00 0.00 80 1016.4
20260504030855 5 124 0.0 0.0 0.00 0.00 0.00 79 1016.3
20260504030353 5 124 0.0 0.0 0.00 0.00 0.00 79 1016.3
20260504025849 6 124 0.0 0.0 0.00 0.00 0.00 77 1016.3
20260504025346 6 124 0.0 0.0 0.00 0.00 0.00 76 1016.2
20260504024843 6 124 0.0 0.0 0.00 0.00 0.00 76 1016.2
20260504024339 6 124 0.0 0.0 0.00 0.00 0.00 76 1016.1
20260504023836 6 124 0.0 0.0 0.00 0.00 0.00 75 1016.2
20260504023333 6 124 0.0 0.0 0.00 0.00 0.00 75 1016.0
20260504022828 6 124 0.0 0.0 0.00 0.00 0.00 76 1016.0
20260504022326 6 124 0.0 0.0 0.00 0.00 0.00 75 1016.1
20260504021822 6 124 0.0 0.0 0.00 0.00 0.00 74 1016.2
20260504021320 6 124 0.0 0.0 0.00 0.00 0.00 73 1016.2
20260504020816 7 124 0.0 0.0 0.00 0.00 0.00 73 1016.1
20260504020313 7 124 0.0 0.0 0.00 0.00 0.00 72 1016.2
20260504015809 7 124 0.0 0.0 0.00 0.00 0.00 71 1015.9
20260504015305 7 124 0.0 0.0 0.00 0.00 0.00 69 1015.8
20260504014801 7 124 0.0 0.0 0.00 0.00 0.00 68 1016.0
20260504014258 7 124 0.0 0.0 0.00 0.00 0.00 67 1016.0
20260504013755 8 124 0.0 0.0 0.00 0.00 0.00 65 1016.0
20260504013253 8 124 0.0 0.0 0.00 0.00 0.00 65 1015.9
20260504012749 8 124 0.0 0.0 0.00 0.00 0.00 64 1015.8
20260504012247 8 124 0.0 0.0 0.00 0.00 0.00 64 1015.8
20260504011744 8 124 0.0 0.0 0.00 0.00 0.00 63 1015.7
20260504011241 8 124 0.0 0.0 0.00 0.00 0.00 62 1015.7
20260504010737 9 124 0.0 0.0 0.00 0.00 0.00 60 1015.7
20260504010232 10 124 0.0 0.0 0.00 0.00 0.00 57 1015.7
20260504005730 10 124 0.0 0.0 0.00 0.00 0.00 57 1015.9
20260504005227 10 124 0.0 0.0 0.00 0.00 0.00 58 1015.5
20260504004724 10 124 0.0 0.0 0.00 0.00 0.00 57 1015.7
20260504004221 10 124 0.0 0.0 0.00 0.00 0.00 55 1015.6
20260504003718 11 124 0.0 0.0 0.00 0.00 0.00 53 1015.5
20260504003215 11 124 0.0 0.0 0.00 0.00 0.00 51 1015.5
20260504002711 11 124 0.0 0.0 0.00 0.00 0.00 50 1015.5
20260504002208 12 124 0.0 0.0 0.00 0.00 0.00 49 1015.3
20260504001706 12 124 0.0 0.0 0.00 0.00 0.00 48 1015.1
20260504001203 12 124 0.0 0.0 0.00 0.00 0.00 46 1015.2
20260504000659 13 124 0.0 0.0 0.00 0.00 0.00 44 1015.2
20260504000157 13 124 0.0 0.0 0.00 0.00 0.00 41 1015.2
20260503235655 14 124 0.0 0.0 0.00 0.00 0.00 40 1015.1
20260503235151 15 124 0.0 0.0 0.00 0.00 0.00 38 1015.1
20260503234649 15 124 0.0 0.0 0.00 0.00 0.00 37 1014.9
20260503234147 15 124 0.0 0.0 0.00 0.00 0.00 36 1014.7
20260503233644 16 124 3.2 4.8 0.00 0.00 0.00 35 1014.9
20260503233139 16 124 3.2 3.2 0.00 0.00 0.00 35 1015.0
20260503232636 16 124 3.2 3.2 0.00 0.00 0.00 34 1014.9
20260503232134 16 124 3.2 3.2 0.00 0.00 0.00 33 1014.9
20260503231632 16 124 3.2 3.2 0.00 0.00 0.00 34 1014.8
20260503231128 16 124 4.8 4.8 0.00 0.00 0.00 33 1014.9
20260503230625 16 124 3.2 3.2 0.00 0.00 0.00 34 1014.9
20260503230122 17 124 3.2 4.8 0.00 0.00 0.00 32 1015.1
20260503225620 17 124 4.8 8.0 0.00 0.00 0.00 32 1014.9
20260503225119 16 124 0.0 0.0 0.00 0.00 0.00 33 1014.8
20260503224617 17 124 4.8 4.8 0.00 0.00 0.00 33 1015.0
20260503224115 16 124 8.0 9.7 0.00 0.00 0.00 33 1015.0
20260503223612 17 124 9.7 12.9 0.00 0.00 0.00 32 1015.2
20260503223108 16 124 4.8 8.0 0.00 0.00 0.00 32 1014.9
20260503222606 17 124 9.7 12.9 0.00 0.00 0.00 33 1014.9
20260503222103 17 124 8.0 11.3 0.00 0.00 0.00 32 1014.9
20260503221602 16 124 11.3 14.5 0.00 0.00 0.00 33 1014.9
20260503221059 17 124 8.0 11.3 0.00 0.00 0.00 32 1015.1
20260503220555 17 124 4.8 4.8 0.00 0.00 0.00 33 1014.9
20260503220052 17 124 9.7 11.3 0.00 0.00 0.00 33 1015.1
20260503215549 17 124 6.4 9.7 0.00 0.00 0.00 32 1015.1
20260503215046 16 124 6.4 8.0 0.00 0.00 0.00 33 1015.1
20260503214544 16 124 11.3 14.5 0.00 0.00 0.00 33 1015.0
20260503214040 17 124 9.7 11.3 0.00 0.00 0.00 33 1015.2
20260503213539 16 124 8.0 9.7 0.00 0.00 0.00 33 1015.1
20260503213035 17 124 8.0 12.9 0.00 0.00 0.00 33 1015.0
20260503212533 17 124 4.8 4.8 0.00 0.00 0.00 34 1015.0
20260503212030 17 124 3.2 4.8 0.00 0.00 0.00 34 1014.8
20260503211527 17 124 6.4 9.7 0.00 0.00 0.00 34 1015.0
20260503211022 17 124 6.4 8.0 0.00 0.00 0.00 34 1014.9
20260503210519 17 124 11.3 14.5 0.00 0.00 0.00 34 1015.3
20260503210015 17 124 8.0 11.3 0.00 0.00 0.00 34 1014.9
20260503205512 16 124 9.7 12.9 0.00 0.00 0.00 33 1014.9
20260503205008 17 124 4.8 8.0 0.00 0.00 0.00 34 1015.1
20260503204506 16 124 11.3 14.5 0.00 0.00 0.00 34 1015.2
20260503204002 16 124 9.7 11.3 0.00 0.00 0.00 34 1015.1
20260503203500 17 124 3.2 3.2 0.00 0.00 0.00 34 1015.2
20260503202956 16 124 11.3 16.1 0.00 0.00 0.00 35 1015.2
20260503202454 16 124 11.3 14.5 0.00 0.00 0.00 35 1015.5
20260503201953 16 124 3.2 3.2 0.00 0.00 0.00 36 1015.3
20260503201450 16 127 6.4 9.7 0.00 0.00 0.00 36 1015.4
20260503200947 16 128 8.0 9.7 0.00 0.00 0.00 37 1015.4
20260503200443 16 126 9.7 12.9 0.00 0.00 0.00 37 1015.5
20260503195940 16 125 14.5 16.1 0.00 0.00 0.00 37 1015.5
20260503195437 15 133 6.4 8.0 0.00 0.00 0.00 38 1015.6
20260503194933 15 131 6.4 9.7 0.00 0.00 0.00 38 1015.8
20260503194431 16 124 8.0 9.7 0.00 0.00 0.00 37 1015.9
20260503193926 16 124 8.0 11.3 0.00 0.00 0.00 37 1015.9
20260503193422 15 125 6.4 9.7 0.00 0.00 0.00 38 1016.0
20260503192917 16 124 8.0 11.3 0.00 0.00 0.00 38 1016.2
20260503192414 16 124 8.0 9.7 0.00 0.00 0.00 37 1015.8
20260503191910 15 124 4.8 9.7 0.00 0.00 0.00 37 1015.8
20260503191408 15 124 8.0 9.7 0.00 0.00 0.00 38 1016.3
20260503190904 15 124 3.2 3.2 0.00 0.00 0.00 37 1016.2
20260503190401 15 124 6.4 11.3 0.00 0.00 0.00 39 1016.4
20260503185858 15 124 8.0 11.3 0.00 0.00 0.00 39 1016.3
20260503185354 15 124 4.8 4.8 0.00 0.00 0.00 39 1016.3
20260503184854 15 124 4.8 9.7 0.00 0.00 0.00 39 1016.4
20260503184350 15 124 12.9 16.1 0.00 0.00 0.00 39 1016.6
20260503183846 15 124 8.0 11.3 0.00 0.00 0.00 39 1016.5
20260503183343 15 127 4.8 8.0 0.00 0.00 0.00 39 1016.6
20260503182841 14 127 8.0 9.7 0.00 0.00 0.00 38 1016.8
20260503182340 15 130 14.5 16.1 0.00 0.00 0.00 39 1016.8
20260503181837 14 134 8.0 9.7 0.00 0.00 0.00 40 1016.7
20260503181333 13 137 8.0 9.7 0.00 0.00 0.00 42 1016.7
20260503180830 13 132 4.8 8.0 0.00 0.00 0.00 40 1016.7
20260503180328 15 136 4.8 8.0 0.00 0.00 0.00 41 1016.7
20260503175824 14 130 11.3 14.5 0.00 0.00 0.00 40 1016.8
20260503175322 15 124 11.3 14.5 0.00 0.00 0.00 38 1016.8
20260503174817 15 124 11.3 16.1 0.00 0.00 0.00 38 1016.9
20260503174316 14 124 1.6 3.2 0.00 0.00 0.00 39 1016.7
20260503173811 15 124 9.7 14.5 0.00 0.00 0.00 40 1016.9
20260503173307 14 129 9.7 14.5 0.00 0.00 0.00 40 1017.0
20260503172804 13 125 16.1 17.7 0.00 0.00 0.00 40 1016.8
20260503172304 13 125 8.0 9.7 0.00 0.00 0.00 41 1016.7
20260503171758 13 125 8.0 9.7 0.00 0.00 0.00 41 1016.8
20260503171255 13 124 3.2 8.0 0.00 0.00 0.00 41 1017.1
20260503170752 13 124 4.8 4.8 0.00 0.00 0.00 40 1017.1
20260503170248 13 125 6.4 9.7 0.00 0.00 0.00 42 1017.2
20260503160211 12 124 6.4 9.7 0.00 0.00 0.00 43 1017.4
20260503150641 11 124 9.7 11.3 0.00 0.00 0.00 44 1017.8
20260503150137 11 125 12.9 17.7 0.00 0.00 0.00 44 1017.8
20260503131031 8 124 9.7 11.3 0.00 0.00 0.00 55 1018.1
20260503130528 8 124 9.7 12.9 0.00 0.00 0.00 54 1018.1